GEFSCGP_prec_meanprecacc_288.txt.gz
Total_Precipitation_Accumulation
0.34 0.71 0.98 0.86 0.79 0.79 0.75 0.74 0.75 0.64 0.57 0.60 0.56 0.49 0.54 0.58 0.62 0.56 0.56 0.56 0.46 0.41 0.45 0.43 0.37 0.41 0.45 0.57 0.68 0.86 1.24 1.69 1.87 1.76 1.72 1.77 1.81 1.75 1.65 1.61 1.58 1.62 1.63 1.63
0.40 0.50 0.40 0.43 0.49 0.60 0.69 0.75 0.77 0.67 0.48 0.48 0.48 0.43 0.44 0.50 0.51 0.48 0.45 0.48 0.43 0.39 0.36 0.34 0.32 0.36 0.40 0.58 0.75 0.88 1.17 1.63 1.83 1.95 2.05 2.25 2.40 2.26 2.11 2.08 2.03 2.10 2.11 2.27
0.34 0.30 0.24 0.35 0.52 0.64 0.69 0.71 0.71 0.64 0.50 0.45 0.43 0.46 0.41 0.46 0.41 0.39 0.39 0.40 0.36 0.30 0.28 0.30 0.30 0.34 0.39 0.52 0.67 0.81 1.02 1.32 1.66 1.92 2.18 2.45 2.66 2.63 2.50 2.32 2.29 2.35 2.40 2.55
0.34 0.27 0.27 0.36 0.44 0.55 0.71 0.48 0.44 0.45 0.59 0.60 0.45 0.68 0.49 0.47 0.43 0.38 0.38 0.38 0.36 0.31 0.29 0.33 0.32 0.34 0.39 0.47 0.58 0.75 0.97 1.21 1.44 1.66 2.07 2.49 2.77 2.86 2.76 2.66 2.62 2.57 2.58 2.62
0.31 0.26 0.28 0.33 0.34 0.41 0.53 0.41 0.41 0.44 0.54 0.50 0.35 0.50 0.48 0.40 0.42 0.37 0.34 0.33 0.33 0.31 0.32 0.36 0.37 0.41 0.47 0.52 0.58 0.74 0.90 1.13 1.37 1.59 1.94 2.32 2.58 2.78 2.91 2.73 2.60 2.61 2.65 2.67
0.27 0.20 0.22 0.28 0.31 0.34 0.42 0.45 0.45 0.47 0.54 0.59 0.29 0.42 0.54 0.38 0.35 0.35 0.31 0.28 0.29 0.33 0.38 0.43 0.53 0.59 0.62 0.58 0.64 0.75 0.88 1.05 1.20 1.33 1.53 1.75 2.09 2.31 2.63 2.62 2.55 2.66 2.64 2.56
0.31 0.27 0.22 0.24 0.31 0.34 0.41 0.63 0.83 0.85 0.82 0.55 0.23 0.38 0.52 0.38 0.31 0.31 0.32 0.29 0.30 0.35 0.41 0.50 0.65 0.73 0.77 0.70 0.66 0.72 0.89 0.98 1.07 1.16 1.23 1.36 1.59 1.73 2.08 2.39 2.37 2.28 2.33 2.38
0.35 0.36 0.22 0.22 0.28 0.33 0.34 0.55 0.88 1.01 0.89 0.57 0.38 0.55 0.59 0.43 0.35 0.31 0.30 0.33 0.38 0.42 0.49 0.67 0.84 0.91 0.91 0.82 0.76 0.82 0.97 1.05 1.09 1.12 1.13 1.20 1.29 1.35 1.51 1.72 1.83 1.84 1.88 2.11
0.35 0.32 0.20 0.21 0.21 0.23 0.30 0.37 0.43 0.62 0.59 0.63 0.60 0.67 0.60 0.40 0.38 0.38 0.40 0.45 0.56 0.65 0.70 0.83 0.99 1.08 1.00 0.89 0.82 0.88 1.00 1.15 1.16 1.18 1.22 1.29 1.27 1.22 1.30 1.31 1.44 1.61 1.64 1.70
0.37 0.35 0.23 0.22 0.24 0.22 0.22 0.29 0.45 0.67 0.86 0.89 0.73 0.73 0.71 0.59 0.54 0.50 0.54 0.60 0.72 0.83 0.91 1.00 1.14 1.19 1.07 0.94 0.86 0.91 1.02 1.14 1.33 1.45 1.38 1.34 1.38 1.39 1.58 1.60 1.45 1.40 1.55 1.61
0.49 0.49 0.30 0.26 0.25 0.25 0.27 0.37 0.52 0.70 0.72 1.00 1.12 1.02 0.80 0.72 0.71 0.73 0.78 0.82 0.88 1.01 1.02 1.01 1.12 1.20 1.10 0.92 0.86 0.85 0.91 1.02 1.16 1.19 1.23 1.20 1.27 1.36 1.61 1.82 1.77 1.57 1.53 1.54
0.47 0.63 0.45 0.30 0.28 0.29 0.36 0.47 0.68 1.05 0.99 0.91 1.11 1.10 0.78 0.71 0.75 0.76 0.77 0.76 0.80 0.91 0.91 0.96 1.02 0.98 0.90 0.78 0.71 0.71 0.73 0.84 0.99 0.99 1.05 1.12 1.13 1.23 1.34 1.46 1.49 1.41 1.29 1.25
0.61 0.84 0.82 0.66 0.61 0.48 0.55 0.56 0.65 0.85 0.97 1.00 1.14 1.11 0.74 0.67 0.62 0.64 0.67 0.70 0.72 0.71 0.71 0.72 0.76 0.75 0.73 0.74 0.72 0.68 0.69 0.78 0.86 0.92 1.00 1.10 1.08 1.08 1.09 1.13 1.09 1.11 1.09 1.13
0.63 0.71 0.79 0.84 0.80 0.74 0.71 0.60 0.57 0.79 1.08 0.99 0.94 0.89 0.71 0.63 0.59 0.62 0.63 0.65 0.67 0.60 0.53 0.54 0.57 0.62 0.68 0.71 0.73 0.70 0.65 0.73 0.84 1.01 1.09 1.16 1.16 1.16 1.15 1.12 1.09 1.10 1.10 1.13
0.52 0.52 0.41 0.38 0.40 0.52 0.55 0.48 0.48 0.58 0.68 0.84 0.79 0.74 0.61 0.58 0.63 0.66 0.64 0.59 0.56 0.49 0.42 0.43 0.45 0.51 0.53 0.57 0.61 0.65 0.62 0.66 0.75 0.89 1.02 1.09 1.16 1.23 1.16 1.05 1.00 1.05 1.03 1.01
0.41 0.44 0.34 0.29 0.28 0.37 0.44 0.43 0.43 0.44 0.49 0.59 0.64 0.63 0.50 0.46 0.46 0.48 0.46 0.40 0.42 0.42 0.36 0.33 0.35 0.38 0.40 0.42 0.45 0.46 0.55 0.71 0.74 0.81 0.92 1.11 1.19 1.13 1.07 0.97 0.95 0.96 0.93 0.91
0.38 0.48 0.55 0.44 0.34 0.39 0.61 0.58 0.58 0.60 0.53 0.54 0.48 0.39 0.26 0.26 0.29 0.33 0.34 0.34 0.38 0.37 0.32 0.29 0.30 0.32 0.33 0.37 0.44 0.48 0.56 0.67 0.71 0.76 0.90 1.11 1.14 1.06 0.99 1.02 1.03 0.96 0.92 0.94
0.32 0.50 0.69 0.54 0.52 0.83 0.93 0.65 0.63 0.59 0.39 0.26 0.19 0.17 0.16 0.23 0.22 0.21 0.23 0.25 0.29 0.28 0.25 0.25 0.25 0.26 0.28 0.31 0.37 0.43 0.49 0.53 0.59 0.67 0.79 0.97 1.02 1.00 1.03 1.02 0.99 0.90 0.84 0.84
0.31 0.53 0.77 0.64 0.65 0.78 0.71 0.46 0.39 0.40 0.30 0.14 0.11 0.12 0.14 0.17 0.17 0.14 0.15 0.16 0.17 0.18 0.15 0.15 0.17 0.21 0.22 0.21 0.24 0.29 0.32 0.35 0.42 0.53 0.65 0.76 0.79 0.86 0.88 0.85 0.88 0.84 0.76 0.75
0.45 0.59 0.87 0.78 0.89 0.83 0.43 0.25 0.23 0.33 0.41 0.17 0.12 0.12 0.10 0.12 0.16 0.11 0.09 0.09 0.10 0.10 0.09 0.08 0.10 0.15 0.19 0.18 0.18 0.20 0.25 0.29 0.33 0.44 0.56 0.65 0.68 0.70 0.73 0.79 0.82 0.83 0.78 0.74
0.48 0.61 0.73 0.76 0.96 0.76 0.35 0.23 0.27 0.45 0.53 0.26 0.17 0.13 0.10 0.09 0.10 0.08 0.08 0.07 0.08 0.07 0.07 0.07 0.08 0.13 0.17 0.19 0.17 0.15 0.19 0.24 0.29 0.35 0.45 0.54 0.57 0.64 0.73 0.82 0.84 0.89 0.85 0.80
0.58 0.64 0.62 0.70 0.89 0.80 0.39 0.36 0.45 0.45 0.33 0.25 0.19 0.15 0.11 0.08 0.06 0.05 0.06 0.06 0.07 0.07 0.06 0.07 0.08 0.13 0.16 0.18 0.17 0.15 0.17 0.21 0.23 0.25 0.32 0.46 0.54 0.61 0.71 0.83 0.88 0.87 0.88 0.88
0.61 0.66 0.70 0.78 0.87 0.60 0.42 0.44 0.42 0.35 0.32 0.23 0.15 0.12 0.11 0.08 0.06 0.05 0.05 0.06 0.07 0.07 0.07 0.07 0.08 0.12 0.11 0.13 0.15 0.16 0.18 0.19 0.18 0.20 0.24 0.32 0.39 0.44 0.54 0.64 0.76 0.82 0.82 0.82
0.46 0.44 0.53 0.63 0.55 0.36 0.35 0.36 0.31 0.27 0.24 0.18 0.15 0.11 0.10 0.08 0.07 0.06 0.05 0.05 0.06 0.07 0.07 0.08 0.10 0.13 0.12 0.11 0.13 0.15 0.17 0.17 0.18 0.21 0.24 0.26 0.29 0.31 0.37 0.52 0.60 0.65 0.70 0.75
0.40 0.46 0.52 0.59 0.53 0.38 0.31 0.31 0.28 0.25 0.19 0.16 0.18 0.17 0.14 0.11 0.08 0.06 0.05 0.05 0.05 0.06 0.06 0.08 0.10 0.12 0.13 0.12 0.13 0.16 0.16 0.17 0.19 0.21 0.22 0.23 0.25 0.29 0.34 0.41 0.54 0.61 0.67 0.72
0.32 0.43 0.58 0.63 0.54 0.50 0.34 0.28 0.24 0.21 0.18 0.15 0.16 0.17 0.19 0.20 0.17 0.11 0.07 0.06 0.06 0.07 0.08 0.10 0.11 0.11 0.12 0.12 0.12 0.15 0.17 0.19 0.23 0.26 0.24 0.25 0.27 0.30 0.33 0.39 0.48 0.54 0.56 0.58

GEFSCGP_prec_meanprecacc_294.txt.gz
Total_Precipitation_Accumulation
0.34 0.72 1.00 0.88 0.80 0.79 0.75 0.74 0.76 0.64 0.57 0.60 0.56 0.50 0.54 0.58 0.62 0.56 0.57 0.56 0.46 0.41 0.45 0.43 0.37 0.41 0.45 0.58 0.69 0.87 1.25 1.70 1.88 1.77 1.74 1.79 1.82 1.77 1.66 1.62 1.59 1.62 1.63 1.64
0.40 0.52 0.41 0.44 0.51 0.61 0.70 0.76 0.77 0.67 0.49 0.48 0.48 0.43 0.44 0.50 0.51 0.48 0.45 0.48 0.43 0.39 0.36 0.34 0.32 0.36 0.40 0.58 0.76 0.89 1.18 1.64 1.84 1.96 2.06 2.26 2.41 2.27 2.12 2.09 2.04 2.10 2.12 2.27
0.35 0.31 0.24 0.36 0.54 0.65 0.69 0.72 0.71 0.64 0.50 0.45 0.43 0.46 0.41 0.46 0.41 0.39 0.39 0.40 0.36 0.30 0.28 0.30 0.30 0.34 0.39 0.52 0.67 0.82 1.03 1.33 1.66 1.92 2.19 2.46 2.67 2.64 2.51 2.34 2.30 2.36 2.41 2.56
0.34 0.28 0.28 0.36 0.45 0.56 0.72 0.49 0.45 0.45 0.59 0.60 0.45 0.69 0.49 0.47 0.43 0.38 0.38 0.38 0.36 0.31 0.29 0.33 0.32 0.34 0.39 0.47 0.58 0.76 0.98 1.21 1.44 1.67 2.07 2.50 2.78 2.87 2.77 2.67 2.63 2.58 2.59 2.63
0.32 0.26 0.29 0.34 0.35 0.42 0.54 0.41 0.41 0.44 0.54 0.51 0.36 0.50 0.49 0.40 0.42 0.37 0.34 0.33 0.33 0.31 0.32 0.36 0.37 0.41 0.47 0.52 0.58 0.74 0.91 1.13 1.37 1.59 1.94 2.33 2.58 2.79 2.91 2.74 2.61 2.63 2.66 2.67
0.27 0.20 0.22 0.28 0.32 0.34 0.43 0.46 0.45 0.47 0.55 0.60 0.29 0.42 0.54 0.38 0.35 0.35 0.31 0.28 0.29 0.33 0.38 0.43 0.53 0.59 0.62 0.58 0.64 0.75 0.88 1.05 1.20 1.33 1.53 1.76 2.10 2.32 2.64 2.63 2.56 2.68 2.65 2.57
0.32 0.27 0.22 0.24 0.31 0.34 0.42 0.64 0.85 0.87 0.84 0.56 0.23 0.38 0.53 0.39 0.31 0.31 0.32 0.29 0.30 0.35 0.41 0.50 0.65 0.73 0.77 0.70 0.66 0.72 0.89 0.98 1.07 1.16 1.23 1.36 1.60 1.74 2.09 2.41 2.38 2.29 2.34 2.40
0.36 0.37 0.22 0.22 0.28 0.33 0.35 0.56 0.89 1.03 0.90 0.58 0.38 0.55 0.60 0.43 0.35 0.31 0.30 0.33 0.38 0.42 0.49 0.67 0.84 0.91 0.91 0.82 0.76 0.82 0.97 1.05 1.09 1.12 1.13 1.20 1.30 1.36 1.52 1.74 1.84 1.86 1.89 2.12
0.36 0.33 0.20 0.21 0.21 0.23 0.30 0.37 0.43 0.62 0.60 0.64 0.60 0.67 0.60 0.40 0.38 0.38 0.40 0.45 0.56 0.65 0.70 0.83 0.99 1.08 1.00 0.89 0.82 0.88 1.01 1.15 1.17 1.18 1.22 1.29 1.28 1.23 1.31 1.32 1.45 1.62 1.65 1.71
0.37 0.36 0.23 0.22 0.24 0.23 0.22 0.29 0.45 0.67 0.87 0.91 0.73 0.73 0.71 0.59 0.54 0.50 0.54 0.60 0.72 0.83 0.91 1.00 1.14 1.19 1.07 0.94 0.86 0.91 1.02 1.14 1.34 1.45 1.38 1.34 1.38 1.39 1.58 1.60 1.45 1.40 1.55 1.61
0.49 0.50 0.30 0.26 0.25 0.25 0.27 0.37 0.52 0.70 0.73 1.01 1.14 1.03 0.80 0.72 0.71 0.74 0.78 0.82 0.88 1.01 1.02 1.01 1.12 1.20 1.11 0.93 0.86 0.86 0.91 1.02 1.16 1.19 1.24 1.21 1.28 1.38 1.62 1.82 1.77 1.57 1.53 1.54
0.47 0.63 0.45 0.30 0.28 0.29 0.36 0.47 0.68 1.06 1.00 0.92 1.13 1.11 0.78 0.71 0.75 0.76 0.77 0.76 0.81 0.91 0.91 0.96 1.02 0.98 0.90 0.78 0.71 0.71 0.73 0.85 0.99 1.00 1.05 1.13 1.14 1.24 1.35 1.47 1.50 1.41 1.29 1.26
0.61 0.84 0.82 0.68 0.62 0.48 0.55 0.56 0.65 0.85 0.98 1.01 1.15 1.11 0.74 0.67 0.62 0.64 0.67 0.70 0.72 0.71 0.71 0.72 0.76 0.75 0.74 0.74 0.73 0.68 0.69 0.78 0.87 0.93 1.01 1.11 1.09 1.09 1.10 1.13 1.09 1.12 1.10 1.14
0.63 0.71 0.79 0.85 0.80 0.74 0.71 0.60 0.57 0.79 1.09 0.99 0.94 0.89 0.72 0.64 0.59 0.62 0.63 0.65 0.67 0.60 0.53 0.54 0.57 0.62 0.68 0.72 0.73 0.70 0.65 0.73 0.85 1.02 1.09 1.17 1.17 1.17 1.16 1.13 1.10 1.11 1.11 1.13
0.53 0.53 0.41 0.38 0.40 0.52 0.55 0.48 0.48 0.58 0.68 0.84 0.79 0.74 0.61 0.58 0.63 0.67 0.64 0.59 0.56 0.49 0.42 0.43 0.45 0.51 0.53 0.57 0.62 0.65 0.62 0.67 0.75 0.90 1.03 1.09 1.17 1.23 1.16 1.06 1.01 1.06 1.04 1.02
0.41 0.45 0.35 0.29 0.28 0.37 0.44 0.43 0.43 0.44 0.49 0.59 0.64 0.63 0.50 0.46 0.46 0.49 0.46 0.40 0.42 0.42 0.36 0.33 0.35 0.38 0.40 0.42 0.45 0.46 0.55 0.72 0.75 0.81 0.92 1.11 1.20 1.13 1.08 0.98 0.96 0.97 0.94 0.93
0.39 0.49 0.56 0.44 0.34 0.39 0.62 0.58 0.58 0.60 0.53 0.54 0.48 0.39 0.26 0.26 0.29 0.33 0.34 0.34 0.38 0.37 0.32 0.30 0.31 0.32 0.34 0.37 0.45 0.49 0.56 0.68 0.71 0.76 0.91 1.12 1.15 1.06 0.99 1.03 1.04 0.97 0.94 0.96
0.32 0.50 0.70 0.54 0.53 0.85 0.94 0.66 0.63 0.59 0.39 0.26 0.19 0.17 0.16 0.23 0.22 0.21 0.23 0.25 0.29 0.29 0.25 0.25 0.26 0.27 0.29 0.32 0.38 0.44 0.50 0.54 0.59 0.67 0.79 0.97 1.02 1.01 1.03 1.02 1.00 0.91 0.85 0.85
0.31 0.53 0.78 0.66 0.67 0.80 0.72 0.47 0.39 0.41 0.30 0.14 0.11 0.13 0.14 0.17 0.17 0.14 0.15 0.16 0.17 0.18 0.15 0.16 0.18 0.21 0.23 0.22 0.25 0.31 0.34 0.38 0.44 0.54 0.66 0.76 0.79 0.86 0.89 0.86 0.89 0.84 0.76 0.76
0.45 0.60 0.89 0.81 0.91 0.86 0.44 0.25 0.24 0.33 0.43 0.17 0.13 0.12 0.10 0.12 0.16 0.12 0.09 0.09 0.10 0.10 0.09 0.09 0.11 0.16 0.20 0.19 0.19 0.21 0.26 0.31 0.35 0.46 0.57 0.66 0.68 0.71 0.74 0.80 0.83 0.84 0.78 0.75
0.49 0.63 0.75 0.79 0.99 0.79 0.36 0.24 0.27 0.46 0.54 0.27 0.17 0.13 0.10 0.09 0.10 0.08 0.08 0.08 0.08 0.08 0.07 0.07 0.08 0.14 0.18 0.19 0.18 0.16 0.20 0.24 0.30 0.36 0.47 0.55 0.58 0.65 0.75 0.83 0.85 0.90 0.86 0.81
0.59 0.65 0.64 0.72 0.92 0.83 0.40 0.36 0.45 0.46 0.34 0.26 0.20 0.16 0.12 0.08 0.06 0.05 0.06 0.06 0.07 0.07 0.07 0.07 0.08 0.14 0.17 0.18 0.18 0.16 0.18 0.21 0.24 0.26 0.34 0.47 0.56 0.63 0.72 0.83 0.89 0.87 0.88 0.89
0.62 0.67 0.71 0.79 0.90 0.61 0.42 0.45 0.43 0.36 0.32 0.23 0.15 0.12 0.11 0.08 0.06 0.05 0.05 0.07 0.08 0.08 0.07 0.07 0.09 0.12 0.12 0.13 0.16 0.16 0.18 0.19 0.18 0.20 0.25 0.34 0.41 0.46 0.55 0.66 0.77 0.82 0.83 0.84
0.47 0.45 0.54 0.65 0.56 0.37 0.35 0.36 0.31 0.28 0.24 0.18 0.15 0.11 0.10 0.08 0.07 0.06 0.05 0.05 0.07 0.07 0.08 0.09 0.12 0.13 0.12 0.12 0.14 0.16 0.17 0.17 0.19 0.22 0.25 0.27 0.30 0.33 0.39 0.53 0.61 0.66 0.72 0.77
0.41 0.47 0.54 0.61 0.55 0.39 0.32 0.31 0.28 0.25 0.19 0.16 0.18 0.17 0.14 0.12 0.08 0.07 0.06 0.05 0.05 0.06 0.06 0.08 0.11 0.13 0.14 0.12 0.13 0.16 0.17 0.18 0.19 0.22 0.24 0.25 0.27 0.30 0.34 0.42 0.55 0.63 0.69 0.74
0.32 0.44 0.59 0.65 0.56 0.51 0.36 0.28 0.24 0.21 0.18 0.15 0.16 0.17 0.19 0.20 0.17 0.11 0.08 0.06 0.06 0.07 0.08 0.10 0.11 0.12 0.13 0.13 0.12 0.15 0.18 0.19 0.24 0.27 0.25 0.26 0.28 0.31 0.34 0.39 0.48 0.55 0.57 0.59

GEFSCGP_prec_meanprecacc_300.txt.gz
Total_Precipitation_Accumulation
0.36 0.74 1.00 0.88 0.81 0.80 0.76 0.75 0.77 0.65 0.59 0.61 0.56 0.50 0.55 0.58 0.62 0.56 0.57 0.56 0.47 0.42 0.45 0.43 0.38 0.41 0.45 0.58 0.69 0.87 1.26 1.70 1.88 1.78 1.75 1.80 1.84 1.78 1.68 1.64 1.61 1.65 1.65 1.65
0.43 0.53 0.42 0.45 0.51 0.63 0.71 0.76 0.78 0.68 0.50 0.49 0.49 0.44 0.44 0.50 0.51 0.48 0.45 0.48 0.43 0.39 0.36 0.34 0.32 0.36 0.40 0.58 0.76 0.89 1.19 1.64 1.84 1.97 2.08 2.27 2.42 2.28 2.14 2.12 2.07 2.13 2.14 2.29
0.36 0.32 0.25 0.36 0.55 0.67 0.71 0.73 0.72 0.65 0.51 0.46 0.45 0.47 0.42 0.47 0.41 0.39 0.39 0.40 0.36 0.30 0.29 0.30 0.30 0.35 0.39 0.52 0.68 0.83 1.04 1.34 1.67 1.93 2.19 2.47 2.68 2.65 2.53 2.36 2.32 2.38 2.43 2.58
0.35 0.28 0.29 0.37 0.46 0.58 0.74 0.50 0.46 0.46 0.60 0.61 0.46 0.70 0.50 0.48 0.44 0.39 0.39 0.38 0.36 0.31 0.30 0.33 0.32 0.35 0.39 0.47 0.59 0.77 0.99 1.22 1.45 1.67 2.07 2.50 2.78 2.88 2.78 2.68 2.63 2.59 2.60 2.65
0.32 0.26 0.29 0.34 0.35 0.43 0.56 0.43 0.43 0.45 0.55 0.51 0.36 0.51 0.50 0.41 0.43 0.38 0.35 0.33 0.33 0.31 0.32 0.36 0.37 0.41 0.48 0.52 0.59 0.75 0.92 1.14 1.37 1.59 1.94 2.33 2.58 2.79 2.92 2.74 2.61 2.63 2.66 2.68
0.27 0.21 0.22 0.28 0.32 0.35 0.44 0.48 0.46 0.49 0.56 0.61 0.30 0.43 0.55 0.38 0.35 0.35 0.31 0.28 0.29 0.33 0.38 0.43 0.53 0.59 0.62 0.59 0.64 0.76 0.89 1.06 1.21 1.33 1.54 1.76 2.10 2.32 2.64 2.63 2.57 2.69 2.66 2.57
0.32 0.27 0.22 0.24 0.32 0.35 0.42 0.66 0.87 0.89 0.86 0.57 0.23 0.39 0.54 0.39 0.31 0.32 0.32 0.30 0.30 0.35 0.41 0.50 0.65 0.74 0.78 0.70 0.67 0.73 0.91 0.99 1.08 1.17 1.24 1.36 1.60 1.74 2.10 2.41 2.39 2.30 2.35 2.40
0.36 0.37 0.22 0.22 0.28 0.33 0.35 0.57 0.91 1.05 0.92 0.59 0.39 0.56 0.60 0.45 0.36 0.32 0.31 0.33 0.38 0.42 0.49 0.67 0.85 0.91 0.91 0.83 0.77 0.83 0.99 1.06 1.09 1.13 1.14 1.21 1.30 1.36 1.53 1.74 1.85 1.86 1.90 2.12
0.36 0.33 0.20 0.21 0.21 0.23 0.31 0.38 0.44 0.64 0.61 0.65 0.60 0.68 0.61 0.41 0.39 0.38 0.40 0.46 0.56 0.65 0.70 0.84 1.00 1.08 1.00 0.90 0.83 0.89 1.02 1.16 1.18 1.20 1.23 1.30 1.29 1.25 1.33 1.35 1.47 1.64 1.66 1.71
0.38 0.36 0.24 0.22 0.24 0.23 0.23 0.30 0.45 0.68 0.89 0.92 0.74 0.74 0.72 0.60 0.55 0.51 0.55 0.61 0.73 0.83 0.91 1.00 1.14 1.19 1.08 0.96 0.88 0.92 1.03 1.16 1.35 1.46 1.39 1.35 1.40 1.42 1.61 1.63 1.47 1.42 1.56 1.62
0.49 0.50 0.31 0.27 0.25 0.25 0.27 0.37 0.52 0.71 0.74 1.02 1.16 1.05 0.81 0.73 0.72 0.75 0.79 0.83 0.89 1.01 1.02 1.02 1.13 1.20 1.11 0.94 0.88 0.87 0.92 1.04 1.18 1.21 1.25 1.22 1.30 1.40 1.65 1.84 1.79 1.59 1.55 1.56
0.47 0.64 0.46 0.31 0.28 0.29 0.36 0.47 0.69 1.06 1.01 0.92 1.13 1.12 0.79 0.72 0.77 0.78 0.79 0.78 0.82 0.92 0.92 0.97 1.02 0.99 0.91 0.78 0.72 0.72 0.75 0.86 1.01 1.01 1.06 1.14 1.15 1.26 1.37 1.49 1.52 1.44 1.31 1.27
0.62 0.85 0.83 0.68 0.62 0.48 0.55 0.57 0.65 0.85 0.98 1.01 1.16 1.12 0.75 0.68 0.64 0.65 0.68 0.71 0.73 0.73 0.72 0.73 0.77 0.75 0.74 0.75 0.73 0.69 0.70 0.79 0.88 0.94 1.02 1.12 1.11 1.10 1.11 1.15 1.11 1.13 1.11 1.15
0.64 0.72 0.80 0.86 0.81 0.74 0.72 0.61 0.57 0.80 1.09 0.99 0.94 0.89 0.72 0.64 0.60 0.63 0.64 0.66 0.68 0.61 0.54 0.55 0.58 0.62 0.69 0.72 0.74 0.71 0.66 0.74 0.85 1.02 1.11 1.17 1.18 1.18 1.17 1.14 1.11 1.12 1.12 1.15
0.54 0.54 0.42 0.38 0.40 0.53 0.56 0.48 0.48 0.58 0.68 0.85 0.79 0.74 0.61 0.58 0.64 0.67 0.65 0.60 0.57 0.50 0.43 0.44 0.46 0.52 0.55 0.59 0.62 0.66 0.63 0.67 0.76 0.90 1.03 1.10 1.18 1.24 1.17 1.07 1.02 1.07 1.06 1.04
0.42 0.47 0.35 0.29 0.28 0.37 0.44 0.43 0.44 0.45 0.49 0.60 0.64 0.63 0.50 0.47 0.47 0.49 0.47 0.41 0.43 0.44 0.38 0.35 0.38 0.41 0.43 0.45 0.48 0.48 0.56 0.72 0.75 0.81 0.92 1.12 1.20 1.13 1.08 0.98 0.96 0.97 0.95 0.95
0.39 0.50 0.57 0.44 0.34 0.39 0.62 0.58 0.58 0.60 0.54 0.55 0.49 0.39 0.26 0.26 0.29 0.34 0.35 0.34 0.38 0.37 0.33 0.30 0.32 0.34 0.35 0.39 0.46 0.50 0.57 0.69 0.73 0.77 0.91 1.12 1.15 1.06 0.99 1.03 1.04 0.98 0.95 0.97
0.33 0.51 0.71 0.55 0.54 0.86 0.95 0.66 0.64 0.61 0.41 0.27 0.21 0.18 0.17 0.23 0.22 0.21 0.23 0.26 0.29 0.29 0.26 0.26 0.27 0.28 0.29 0.32 0.39 0.45 0.51 0.56 0.61 0.68 0.80 0.97 1.02 1.01 1.03 1.03 1.00 0.92 0.85 0.86
0.32 0.54 0.79 0.67 0.68 0.81 0.73 0.48 0.41 0.43 0.31 0.15 0.13 0.14 0.15 0.17 0.17 0.14 0.15 0.16 0.17 0.18 0.16 0.16 0.19 0.23 0.24 0.23 0.26 0.31 0.35 0.40 0.45 0.55 0.67 0.77 0.80 0.87 0.90 0.87 0.90 0.85 0.77 0.77
0.45 0.60 0.89 0.81 0.92 0.87 0.47 0.28 0.26 0.35 0.46 0.19 0.14 0.14 0.11 0.12 0.17 0.12 0.09 0.10 0.10 0.11 0.10 0.09 0.11 0.17 0.21 0.19 0.20 0.22 0.28 0.33 0.37 0.47 0.58 0.67 0.69 0.71 0.75 0.81 0.84 0.85 0.79 0.75
0.49 0.63 0.76 0.79 0.99 0.80 0.39 0.26 0.28 0.49 0.57 0.28 0.19 0.15 0.12 0.10 0.11 0.09 0.09 0.08 0.08 0.08 0.08 0.08 0.09 0.15 0.19 0.20 0.18 0.16 0.21 0.26 0.31 0.37 0.48 0.55 0.59 0.66 0.76 0.84 0.86 0.90 0.87 0.82
0.60 0.65 0.64 0.73 0.93 0.85 0.41 0.37 0.46 0.48 0.36 0.27 0.22 0.18 0.13 0.09 0.07 0.06 0.07 0.07 0.08 0.08 0.08 0.08 0.09 0.15 0.18 0.19 0.18 0.16 0.18 0.23 0.26 0.27 0.35 0.48 0.57 0.64 0.73 0.84 0.89 0.88 0.89 0.90
0.62 0.67 0.71 0.80 0.91 0.63 0.43 0.46 0.44 0.37 0.34 0.24 0.17 0.15 0.13 0.10 0.07 0.05 0.06 0.07 0.08 0.09 0.08 0.08 0.11 0.15 0.13 0.15 0.16 0.17 0.18 0.20 0.20 0.22 0.27 0.35 0.42 0.47 0.56 0.67 0.78 0.83 0.84 0.85
0.48 0.45 0.55 0.65 0.57 0.38 0.35 0.37 0.32 0.30 0.26 0.20 0.16 0.13 0.12 0.10 0.08 0.06 0.05 0.06 0.07 0.08 0.08 0.10 0.13 0.15 0.14 0.14 0.15 0.17 0.18 0.18 0.19 0.23 0.26 0.28 0.31 0.34 0.40 0.55 0.62 0.67 0.73 0.78
0.42 0.48 0.55 0.62 0.56 0.41 0.33 0.32 0.29 0.26 0.20 0.17 0.19 0.18 0.16 0.14 0.11 0.08 0.07 0.06 0.06 0.06 0.06 0.08 0.11 0.14 0.15 0.14 0.14 0.17 0.17 0.18 0.20 0.22 0.24 0.25 0.27 0.30 0.35 0.43 0.57 0.65 0.70 0.76
0.33 0.44 0.60 0.67 0.58 0.53 0.37 0.30 0.25 0.22 0.18 0.16 0.16 0.18 0.20 0.21 0.18 0.12 0.09 0.07 0.08 0.08 0.09 0.10 0.11 0.12 0.14 0.14 0.13 0.16 0.18 0.20 0.25 0.28 0.26 0.27 0.29 0.32 0.35 0.41 0.50 0.58 0.59 0.61

GEFSCGP_prec_meanprecacc_306.txt.gz
Total_Precipitation_Accumulation
0.37 0.75 1.00 0.88 0.81 0.80 0.76 0.75 0.77 0.66 0.59 0.62 0.57 0.51 0.55 0.59 0.62 0.56 0.57 0.56 0.47 0.42 0.46 0.44 0.38 0.41 0.46 0.58 0.70 0.88 1.27 1.71 1.89 1.79 1.76 1.82 1.86 1.80 1.70 1.66 1.64 1.69 1.69 1.69
0.43 0.53 0.42 0.45 0.52 0.63 0.71 0.76 0.78 0.68 0.50 0.50 0.49 0.44 0.44 0.50 0.51 0.48 0.45 0.48 0.43 0.39 0.37 0.35 0.32 0.37 0.41 0.58 0.76 0.90 1.19 1.64 1.85 1.98 2.10 2.29 2.45 2.30 2.16 2.14 2.10 2.17 2.19 2.34
0.36 0.32 0.25 0.37 0.55 0.67 0.71 0.73 0.72 0.65 0.51 0.46 0.45 0.47 0.42 0.47 0.41 0.39 0.39 0.40 0.36 0.30 0.29 0.30 0.30 0.35 0.39 0.53 0.68 0.84 1.05 1.34 1.68 1.94 2.21 2.48 2.69 2.66 2.54 2.37 2.35 2.41 2.46 2.60
0.35 0.29 0.29 0.37 0.46 0.58 0.74 0.50 0.46 0.46 0.60 0.62 0.47 0.70 0.50 0.48 0.44 0.39 0.39 0.38 0.37 0.31 0.30 0.34 0.32 0.35 0.39 0.48 0.59 0.78 0.99 1.23 1.46 1.68 2.08 2.50 2.79 2.88 2.79 2.69 2.64 2.61 2.61 2.66
0.33 0.27 0.29 0.34 0.35 0.43 0.56 0.43 0.44 0.46 0.55 0.51 0.37 0.51 0.50 0.41 0.43 0.38 0.35 0.33 0.33 0.31 0.33 0.37 0.37 0.42 0.48 0.53 0.60 0.75 0.92 1.15 1.38 1.60 1.95 2.34 2.59 2.79 2.92 2.76 2.62 2.64 2.67 2.68
0.28 0.21 0.23 0.29 0.32 0.35 0.44 0.48 0.47 0.50 0.56 0.61 0.30 0.43 0.55 0.38 0.35 0.35 0.31 0.28 0.29 0.33 0.38 0.43 0.53 0.60 0.63 0.59 0.65 0.78 0.90 1.07 1.21 1.34 1.55 1.76 2.10 2.32 2.65 2.64 2.57 2.69 2.66 2.58
0.33 0.27 0.23 0.25 0.32 0.35 0.43 0.67 0.87 0.90 0.86 0.58 0.24 0.39 0.54 0.39 0.31 0.32 0.32 0.30 0.30 0.35 0.41 0.51 0.65 0.74 0.78 0.70 0.69 0.75 0.92 1.00 1.09 1.17 1.25 1.37 1.60 1.74 2.10 2.42 2.39 2.31 2.36 2.41
0.37 0.37 0.23 0.23 0.29 0.34 0.36 0.57 0.91 1.05 0.93 0.59 0.39 0.56 0.60 0.45 0.36 0.32 0.31 0.34 0.38 0.43 0.49 0.67 0.85 0.91 0.91 0.83 0.78 0.85 0.99 1.07 1.10 1.13 1.15 1.22 1.31 1.37 1.54 1.76 1.87 1.88 1.92 2.13
0.36 0.33 0.20 0.21 0.21 0.24 0.32 0.39 0.44 0.64 0.61 0.65 0.61 0.68 0.61 0.41 0.39 0.39 0.41 0.46 0.57 0.65 0.70 0.84 1.00 1.09 1.00 0.90 0.83 0.90 1.03 1.17 1.19 1.21 1.25 1.31 1.30 1.26 1.34 1.36 1.49 1.66 1.68 1.73
0.38 0.37 0.24 0.22 0.24 0.23 0.23 0.31 0.47 0.68 0.89 0.93 0.74 0.74 0.72 0.60 0.55 0.51 0.55 0.61 0.73 0.83 0.92 1.00 1.15 1.20 1.08 0.96 0.89 0.94 1.06 1.17 1.36 1.48 1.41 1.37 1.42 1.44 1.64 1.66 1.51 1.45 1.59 1.64
0.50 0.50 0.31 0.27 0.25 0.25 0.28 0.38 0.53 0.72 0.75 1.03 1.16 1.06 0.81 0.74 0.73 0.75 0.80 0.83 0.90 1.02 1.03 1.02 1.13 1.21 1.12 0.95 0.89 0.89 0.95 1.06 1.19 1.22 1.26 1.24 1.32 1.43 1.67 1.87 1.83 1.63 1.58 1.59
0.48 0.65 0.46 0.31 0.28 0.30 0.37 0.48 0.69 1.07 1.02 0.93 1.14 1.12 0.79 0.73 0.77 0.78 0.79 0.78 0.83 0.93 0.93 0.98 1.03 0.99 0.92 0.79 0.73 0.73 0.76 0.88 1.02 1.02 1.08 1.16 1.17 1.28 1.40 1.52 1.55 1.46 1.34 1.30
0.62 0.86 0.84 0.69 0.63 0.49 0.56 0.57 0.66 0.86 0.99 1.02 1.16 1.12 0.75 0.68 0.64 0.65 0.69 0.72 0.74 0.73 0.73 0.75 0.78 0.76 0.75 0.76 0.74 0.70 0.72 0.81 0.89 0.96 1.04 1.14 1.12 1.12 1.13 1.16 1.12 1.14 1.13 1.16
0.64 0.72 0.80 0.86 0.81 0.75 0.72 0.61 0.57 0.80 1.09 1.00 0.95 0.89 0.72 0.64 0.60 0.63 0.64 0.66 0.69 0.62 0.54 0.56 0.59 0.64 0.70 0.73 0.75 0.72 0.67 0.76 0.87 1.05 1.13 1.20 1.19 1.19 1.18 1.15 1.12 1.13 1.13 1.16
0.54 0.54 0.43 0.39 0.40 0.53 0.56 0.48 0.49 0.58 0.68 0.85 0.79 0.74 0.61 0.59 0.64 0.67 0.65 0.61 0.58 0.50 0.43 0.45 0.47 0.53 0.56 0.60 0.64 0.67 0.64 0.69 0.78 0.92 1.06 1.12 1.19 1.25 1.18 1.08 1.02 1.08 1.06 1.05
0.42 0.47 0.36 0.30 0.28 0.38 0.44 0.43 0.44 0.45 0.49 0.60 0.65 0.63 0.51 0.47 0.47 0.49 0.47 0.41 0.43 0.44 0.38 0.36 0.39 0.43 0.44 0.47 0.49 0.50 0.58 0.75 0.78 0.84 0.94 1.14 1.22 1.15 1.09 0.99 0.97 0.98 0.96 0.95
0.40 0.51 0.57 0.45 0.34 0.40 0.63 0.58 0.59 0.61 0.55 0.56 0.50 0.40 0.27 0.27 0.29 0.34 0.35 0.34 0.38 0.37 0.33 0.30 0.32 0.34 0.35 0.39 0.47 0.51 0.59 0.71 0.75 0.79 0.93 1.13 1.16 1.07 1.00 1.04 1.05 0.99 0.96 0.98
0.34 0.52 0.72 0.56 0.55 0.86 0.95 0.66 0.64 0.62 0.42 0.28 0.22 0.19 0.17 0.23 0.22 0.21 0.23 0.26 0.30 0.29 0.26 0.26 0.27 0.28 0.30 0.33 0.40 0.46 0.52 0.57 0.62 0.69 0.81 0.98 1.03 1.01 1.04 1.03 1.01 0.93 0.87 0.87
0.32 0.55 0.80 0.68 0.68 0.82 0.73 0.48 0.41 0.44 0.33 0.16 0.14 0.15 0.15 0.18 0.17 0.14 0.15 0.16 0.17 0.19 0.16 0.17 0.19 0.23 0.25 0.23 0.27 0.33 0.37 0.41 0.47 0.56 0.68 0.78 0.81 0.87 0.90 0.88 0.90 0.86 0.77 0.77
0.45 0.61 0.89 0.82 0.93 0.88 0.48 0.29 0.26 0.36 0.47 0.19 0.14 0.14 0.12 0.13 0.17 0.12 0.09 0.10 0.11 0.11 0.10 0.09 0.12 0.17 0.22 0.20 0.21 0.24 0.31 0.35 0.38 0.48 0.60 0.68 0.69 0.72 0.75 0.81 0.84 0.85 0.79 0.76
0.50 0.63 0.76 0.79 1.00 0.80 0.40 0.28 0.29 0.50 0.58 0.28 0.19 0.16 0.12 0.11 0.12 0.10 0.09 0.08 0.09 0.08 0.08 0.09 0.10 0.15 0.20 0.21 0.20 0.19 0.25 0.28 0.32 0.38 0.49 0.56 0.59 0.66 0.76 0.84 0.86 0.90 0.87 0.82
0.60 0.66 0.64 0.73 0.93 0.85 0.42 0.37 0.46 0.49 0.37 0.28 0.23 0.19 0.14 0.10 0.08 0.07 0.07 0.07 0.08 0.08 0.08 0.08 0.10 0.16 0.19 0.20 0.19 0.18 0.21 0.25 0.28 0.29 0.36 0.49 0.57 0.65 0.73 0.85 0.89 0.88 0.89 0.90
0.63 0.67 0.72 0.80 0.91 0.63 0.43 0.46 0.44 0.38 0.35 0.25 0.18 0.16 0.14 0.11 0.08 0.06 0.06 0.07 0.08 0.09 0.09 0.09 0.12 0.17 0.15 0.16 0.18 0.19 0.22 0.23 0.22 0.23 0.28 0.36 0.42 0.47 0.57 0.67 0.78 0.84 0.84 0.85
0.48 0.45 0.55 0.66 0.58 0.38 0.35 0.37 0.33 0.30 0.27 0.20 0.17 0.14 0.12 0.11 0.09 0.07 0.06 0.07 0.08 0.09 0.09 0.10 0.13 0.16 0.15 0.15 0.16 0.18 0.20 0.20 0.22 0.24 0.27 0.29 0.32 0.34 0.40 0.55 0.62 0.68 0.73 0.78
0.42 0.48 0.55 0.63 0.57 0.41 0.33 0.32 0.29 0.27 0.20 0.17 0.19 0.19 0.16 0.14 0.11 0.09 0.07 0.07 0.07 0.08 0.08 0.10 0.13 0.15 0.16 0.14 0.15 0.18 0.19 0.20 0.22 0.24 0.26 0.27 0.29 0.32 0.36 0.44 0.57 0.65 0.70 0.76
0.33 0.44 0.60 0.67 0.58 0.53 0.38 0.30 0.25 0.22 0.19 0.16 0.17 0.18 0.20 0.21 0.19 0.13 0.09 0.08 0.08 0.10 0.10 0.12 0.13 0.14 0.16 0.16 0.14 0.17 0.19 0.20 0.26 0.29 0.27 0.28 0.30 0.34 0.37 0.42 0.51 0.58 0.60 0.62